TimeEST,TemperatureF,Dew PointF,Humidity,Sea Level PressureIn,VisibilityMPH,Wind Direction,Wind SpeedMPH,Gust SpeedMPH,PrecipitationIn,Events,Conditions,WindDirDegrees,DateUTC
12:15 AM,43.0,43.0,100,30.04,7.0,North,-9999.0,-,N/A,,Mostly Cloudy,0,2013-02-11 05:15:00
12:35 AM,43.5,43.5,100,30.03,7.0,North,-9999.0,-,N/A,,Overcast,0,2013-02-11 05:35:00
12:55 AM,43.9,43.9,100,30.04,7.0,North,-9999.0,-,N/A,,Overcast,0,2013-02-11 05:55:00
1:15 AM,44.2,44.2,100,30.03,7.0,North,-9999.0,-,N/A,,Overcast,0,2013-02-11 06:15:00
1:35 AM,44.6,44.6,100,30.01,7.0,North,-9999.0,-,N/A,,Overcast,0,2013-02-11 06:35:00
1:55 AM,45.0,45.0,100,30.01,10.0,North,-9999.0,-,N/A,,Overcast,0,2013-02-11 06:55:00
2:15 AM,45.3,45.3,100,30.00,7.0,North,-9999.0,-,N/A,,Overcast,0,2013-02-11 07:15:00
2:35 AM,45.5,45.5,100,30.00,10.0,North,-9999.0,-,N/A,,Mostly Cloudy,0,2013-02-11 07:35:00
2:55 AM,45.3,45.3,100,30.00,10.0,North,-9999.0,-,N/A,,Overcast,0,2013-02-11 07:55:00
3:15 AM,45.7,45.7,100,30.00,10.0,North,-9999.0,-,N/A,,Overcast,0,2013-02-11 08:15:00
3:35 AM,45.5,45.5,100,29.99,7.0,North,-9999.0,-,N/A,,Overcast,0,2013-02-11 08:35:00
3:55 AM,45.7,45.7,100,29.97,7.0,North,-9999.0,-,N/A,Rain,Light Rain,0,2013-02-11 08:55:00
4:15 AM,45.9,45.9,100,29.97,10.0,North,-9999.0,-,N/A,,Overcast,0,2013-02-11 09:15:00
4:35 AM,45.9,45.9,100,29.98,10.0,North,-9999.0,-,N/A,,Mostly Cloudy,0,2013-02-11 09:35:00
4:55 AM,45.9,45.9,100,29.98,7.0,North,-9999.0,-,N/A,,Overcast,0,2013-02-11 09:55:00
5:15 AM,45.9,45.9,100,29.99,10.0,North,-9999.0,-,N/A,,Overcast,0,2013-02-11 10:15:00
5:35 AM,46.2,46.2,100,29.98,7.0,North,-9999.0,-,N/A,,Overcast,0,2013-02-11 10:35:00
5:55 AM,46.4,46.4,100,29.99,10.0,North,-9999.0,-,N/A,,Overcast,0,2013-02-11 10:55:00
6:15 AM,46.4,46.4,100,29.99,10.0,North,-9999.0,-,N/A,,Overcast,0,2013-02-11 11:15:00
6:35 AM,46.6,46.6,100,29.98,10.0,North,-9999.0,-,N/A,,Overcast,0,2013-02-11 11:35:00
6:55 AM,46.6,46.6,100,29.98,7.0,North,-9999.0,-,N/A,,Overcast,0,2013-02-11 11:55:00
7:15 AM,46.4,46.4,100,29.99,10.0,North,-9999.0,-,N/A,,Overcast,0,2013-02-11 12:15:00
7:35 AM,46.0,46.0,100,29.99,5.0,North,-9999.0,-,N/A,,Mostly Cloudy,0,2013-02-11 12:35:00
7:55 AM,46.4,46.4,100,29.99,5.0,North,-9999.0,-,N/A,Rain,Light Rain,0,2013-02-11 12:55:00
8:15 AM,47.3,47.3,100,30.00,7.0,North,-9999.0,-,N/A,,Overcast,0,2013-02-11 13:15:00
8:35 AM,48.7,48.7,100,30.00,10.0,North,-9999.0,-,N/A,,Overcast,0,2013-02-11 13:35:00
8:55 AM,51.1,51.1,100,30.00,10.0,North,-9999.0,-,N/A,,Overcast,0,2013-02-11 13:55:00
9:15 AM,54.0,54.0,100,30.00,10.0,North,-9999.0,-,N/A,,Overcast,0,2013-02-11 14:15:00
9:35 AM,57.0,54.0,89,30.00,10.0,North,-9999.0,-,N/A,,Overcast,0,2013-02-11 14:35:00
9:55 AM,57.9,53.6,86,30.00,10.0,North,-9999.0,-,N/A,,Overcast,0,2013-02-11 14:55:00
10:15 AM,59.0,53.8,83,29.99,10.0,North,-9999.0,-,N/A,,Mostly Cloudy,0,2013-02-11 15:15:00
10:35 AM,61.3,54.1,77,29.99,10.0,North,-9999.0,-,N/A,,Mostly Cloudy,0,2013-02-11 15:35:00
10:55 AM,60.8,53.2,76,29.99,10.0,North,-9999.0,-,N/A,,Mostly Cloudy,0,2013-02-11 15:55:00
11:15 AM,60.8,52.3,74,29.98,10.0,North,-9999.0,-,N/A,,Mostly Cloudy,0,2013-02-11 16:15:00
11:35 AM,61.2,52.0,72,29.98,10.0,North,-9999.0,-,N/A,,Mostly Cloudy,0,2013-02-11 16:35:00
11:55 AM,61.3,51.3,69,29.98,10.0,North,-9999.0,-,N/A,,Mostly Cloudy,0,2013-02-11 16:55:00
12:15 PM,62.1,51.1,67,29.96,10.0,North,-9999.0,-,N/A,,Mostly Cloudy,0,2013-02-11 17:15:00
12:35 PM,61.9,50.5,66,29.96,10.0,North,-9999.0,-,N/A,,Mostly Cloudy,0,2013-02-11 17:35:00
12:55 PM,62.8,50.0,63,29.95,10.0,North,-9999.0,-,N/A,,Mostly Cloudy,0,2013-02-11 17:55:00
1:15 PM,62.6,49.6,63,29.93,10.0,North,-9999.0,-,N/A,,Mostly Cloudy,0,2013-02-11 18:15:00
1:35 PM,62.8,48.4,59,29.94,10.0,North,-9999.0,-,N/A,,Mostly Cloudy,0,2013-02-11 18:35:00
1:55 PM,62.2,47.7,59,29.94,10.0,North,-9999.0,-,N/A,,Mostly Cloudy,0,2013-02-11 18:55:00
2:15 PM,62.1,47.3,58,29.95,10.0,North,-9999.0,-,N/A,,Mostly Cloudy,0,2013-02-11 19:15:00
2:35 PM,62.1,46.6,57,29.95,10.0,North,-9999.0,-,N/A,,Mostly Cloudy,0,2013-02-11 19:35:00
2:55 PM,62.1,44.2,52,29.94,10.0,North,-9999.0,-,N/A,,Mostly Cloudy,0,2013-02-11 19:55:00
3:15 PM,61.3,38.1,42,29.94,10.0,North,-9999.0,-,N/A,,Mostly Cloudy,0,2013-02-11 20:15:00
3:55 PM,60.4,34.2,37,29.95,10.0,North,-9999.0,-,N/A,,Clear,0,2013-02-11 20:55:00
4:55 PM,58.5,31.1,35,29.96,10.0,North,-9999.0,-,N/A,,Clear,0,2013-02-11 21:55:00
5:55 PM,56.3,28.4,34,29.97,10.0,North,-9999.0,-,N/A,,Clear,0,2013-02-11 22:55:00
6:15 PM,55.2,27.3,34,29.97,10.0,North,-9999.0,-,N/A,,Clear,0,2013-02-11 23:15:00
6:35 PM,53.8,27.0,36,29.98,10.0,North,-9999.0,-,N/A,,Clear,0,2013-02-11 23:35:00
6:55 PM,54.0,24.8,32,29.98,10.0,North,-9999.0,-,N/A,,Clear,0,2013-02-11 23:55:00
7:15 PM,52.3,24.3,34,29.99,10.0,North,-9999.0,-,N/A,,Clear,0,2013-02-12 00:15:00
7:35 PM,51.4,23.0,33,30.00,10.0,North,-9999.0,-,N/A,,Clear,0,2013-02-12 00:35:00
7:55 PM,49.1,25.0,39,30.00,10.0,North,-9999.0,-,N/A,,Clear,0,2013-02-12 00:55:00
8:15 PM,50.5,22.8,34,30.01,10.0,North,-9999.0,-,N/A,,Clear,0,2013-02-12 01:15:00
8:35 PM,50.5,21.2,32,30.02,10.0,North,-9999.0,-,N/A,,Clear,0,2013-02-12 01:35:00
8:55 PM,50.5,21.0,31,30.04,10.0,North,-9999.0,-,N/A,,Clear,0,2013-02-12 01:55:00
9:15 PM,49.6,21.7,33,30.05,10.0,North,-9999.0,-,N/A,,Clear,0,2013-02-12 02:15:00
9:35 PM,49.1,22.3,35,30.05,10.0,North,-9999.0,-,N/A,,Clear,0,2013-02-12 02:35:00
9:55 PM,48.4,23.0,37,30.06,10.0,North,-9999.0,-,N/A,,Clear,0,2013-02-12 02:55:00
10:15 PM,46.9,24.4,41,30.07,10.0,North,-9999.0,-,N/A,,Clear,0,2013-02-12 03:15:00
10:35 PM,46.4,24.4,42,30.08,10.0,North,-9999.0,-,N/A,,Clear,0,2013-02-12 03:35:00
10:55 PM,45.9,25.7,45,30.08,10.0,North,-9999.0,-,N/A,,Clear,0,2013-02-12 03:55:00
11:15 PM,45.5,25.5,46,30.09,10.0,North,-9999.0,-,N/A,,Clear,0,2013-02-12 04:15:00
11:35 PM,44.2,26.4,50,30.10,10.0,North,-9999.0,-,N/A,,Clear,0,2013-02-12 04:35:00
11:55 PM,43.3,27.1,53,30.11,10.0,North,-9999.0,-,N/A,,Clear,0,2013-02-12 04:55:00